Lamoni, IA

8:24 AM CST on February 10, 2016 (GMT -0600)
Lamoni Municipal

Weather History for KLWD - October, 2011

Change the Weather History Date:

Thursday, October 27, 2011

  Actual Average Record
Temperature  
Mean Temperature 46 °F 49 °F  
Max Temperature 57 °F 59 °F 80 °F (1999)
Min Temperature 35 °F 39 °F 21 °F (2001)
Degree Days  
Heating Degree Days 19 16  
Month to date heating degree days 236 315  
Since 1 July heating degree days 399 415  
Cooling Degree Days 0 0  
Month to date cooling degree days 23 11  
Year to date cooling degree days 1144 944  
Moisture  
Dew Point 29 °F    
Average Humidity 59    
Maximum Humidity 89    
Minimum Humidity 28    
Precipitation  
Precipitation T in 0.11 in 0.87 in (1980)
Month to date precipitation 0.07 2.54  
Year to date precipitation 29.07  
Sea Level Pressure  
Sea Level Pressure 30.13 in    
Wind  
Wind Speed 6 mph (NW)    
Max Wind Speed 16 mph    
Max Gust Speed 21 mph    
Visibility 10 miles    
Events      
T = Trace of Precipitation, MM = Missing Value Source: NWS Daily Summary

Daily Weather History Graph

Daily Weather History Graph

Search for Another Location

Airport or City:

Trip Planner

Search our weather history database for the weather conditions in past years. The results will help you decide how hot, cold, wet, or windy it might be!

Date:

Astronomy

Oct. 27, 2011 Rise Set
Actual Time 7:39 AM CDT 6:18 PM CDT
Civil Twilight 7:11 AM CDT 6:46 PM CDT
Nautical Twilight 6:39 AM CDT 7:18 PM CDT
Astronomical Twilight 6:07 AM CDT 7:50 PM CDT
Moon 8:44 AM CDT (10/27) 6:47 PM CDT (10/27)
Length of Visible Light 11h 35m
Length of Day
10h 38m
New Moon, 1% of the Moon is Illuminated
Oct 27
New Moon
Nov 2
First Quarter
Nov 10
Full
Nov 18
Last Quarter
Nov 25
New

Hourly Weather History & Observations

Time (CDT) Temp. Windchill Dew Point Humidity Pressure Visibility Wind Dir Wind Speed Gust Speed Precip Events Conditions
12:53 AM 45.0 °F 42.6 °F 37.0 °F 74% 30.07 in 10.0 mi NNW 4.6 mph - N/A   Overcast
1:53 AM 44.1 °F 41.5 °F 37.0 °F 76% 30.08 in 10.0 mi NW 4.6 mph - N/A   Overcast
3:53 AM 44.1 °F 40.1 °F 37.0 °F 76% 30.08 in 10.0 mi NW 6.9 mph - 0.00 in   Overcast
4:53 AM 42.1 °F 37.7 °F 35.1 °F 76% 30.09 in 10.0 mi NNW 6.9 mph - N/A   Scattered Clouds
5:53 AM 37.9 °F 33.5 °F 33.1 °F 83% 30.11 in 10.0 mi NNW 5.8 mph - N/A   Partly Cloudy
6:53 AM 37.0 °F 32.4 °F 33.1 °F 86% 30.11 in 10.0 mi NNW 5.8 mph - N/A   Clear
7:53 AM 35.1 °F 29.3 °F 32.0 °F 89% 30.12 in 10.0 mi NNW 6.9 mph - N/A   Clear
8:53 AM 39.9 °F 36.7 °F 34.0 °F 79% 30.13 in 10.0 mi NNW 4.6 mph - N/A   Clear
9:53 AM 46.0 °F 41.4 °F 35.1 °F 66% 30.14 in 10.0 mi North 9.2 mph - N/A   Clear
10:53 AM 48.9 °F - 32.0 °F 52% 30.15 in 10.0 mi NW 5.8 mph - N/A   Clear
11:53 AM 52.0 °F - 30.0 °F 43% 30.15 in 10.0 mi North 5.8 mph - N/A   Clear
12:53 PM 53.1 °F - 28.0 °F 38% 30.14 in 10.0 mi WNW 6.9 mph - N/A   Scattered Clouds
1:53 PM 51.1 °F - 25.0 °F 36% 30.13 in 10.0 mi NW 11.5 mph - N/A   Mostly Cloudy
2:53 PM 54.0 °F - 23.0 °F 30% 30.11 in 10.0 mi WNW 11.5 mph - N/A   Overcast
3:53 PM 54.0 °F - 21.9 °F 29% 30.11 in 10.0 mi NW 9.2 mph - N/A   Overcast
4:53 PM 51.1 °F - 21.9 °F 32% 30.12 in 10.0 mi NW 10.4 mph - N/A   Scattered Clouds
5:53 PM 48.9 °F - 23.0 °F 36% 30.12 in 10.0 mi NW 4.6 mph - N/A   Clear
6:53 PM 44.1 °F 42.5 °F 23.0 °F 43% 30.14 in 10.0 mi NW 3.5 mph - N/A   Clear
7:53 PM 44.1 °F - 23.0 °F 43% 30.16 in 10.0 mi Calm Calm - N/A   Clear
8:53 PM 37.0 °F 33.3 °F 26.1 °F 65% 30.17 in 8.0 mi West 4.6 mph - N/A   Clear
9:53 PM 37.9 °F 35.5 °F 25.0 °F 60% 30.18 in 10.0 mi WSW 3.5 mph - N/A   Clear
10:53 PM 39.9 °F 36.7 °F 25.0 °F 55% 30.18 in 10.0 mi WSW 4.6 mph - N/A   Clear
11:53 PM 41.0 °F 38.0 °F 24.1 °F 51% 30.17 in 10.0 mi SW 4.6 mph - N/A   Clear